This demonstration page uses our WeatherBlox Daily Observations layout. Learn more.

Left ArrowRight Arrow

Hourly Observations for March 7, 2020

Temp ( °F °C ) Dew Point ( °F °C ) Humidity (%) Winds ( mph kmh ) Pressure ( in mb ) Visibility ( mi km ) Precip ( " mm )
12:56 am 00:56 Clear 42 5.6 26 -3.3 53 53 S 18 30 30.15 1021 10 16 0.00 0.00
1:56 am 01:56 Clear 41 5 26 -3.3 55 55 S 14 22 30.14 1021 10 16 0.00 0.00
2:56 am 02:56 Clear 42 5.6 26 -3.3 53 53 S 17 28 30.10 1019 10 16 0.00 0.00
3:56 am 03:56 Clear 42 5.6 26 -3.3 53 53 S 15 24 30.08 1019 10 16 0.00 0.00
4:56 am 04:56 Clear 41 5 26 -3.3 55 55 S 16 26 30.07 1018 10 16 0.00 0.00
5:56 am 05:56 Clear 40 4.4 27 -2.8 60 60 S 16 26 30.07 1018 10 16 0.00 0.00
6:56 am 06:56 Clear 39 3.9 27 -2.8 62 62 S 15 24 30.06 1018 10 16 0.00 0.00
7:56 am 07:56 Sunny 41 5 28 -2.2 60 60 S 20 31 30.05 1018 10 16 0.00 0.00
8:56 am 08:56 Sunny 48 8.9 30 -1.1 50 50 S 20 31 30.05 1018 10 16 0.00 0.00
9:56 am 09:56 Sunny 53 11.7 32 0 45 45 SSW 25 41 30.02 1017 10 16 0.00 0.00
10:56 am 10:56 Sunny 56 13.3 33 0.6 42 42 S 21 33 30.01 1016 10 16 0.00 0.00
11:56 am 11:56 Sunny 62 16.7 34 1.1 35 35 SSW 25 41 29.98 1015 10 16 0.00 0.00
12:56 pm 12:56 Sunny 65 18.3 35 1.7 33 33 S 23 37 29.95 1014 10 16 0.00 0.00
1:56 pm 13:56 Sunny 70 21.1 34 1.1 27 27 S 28 44 29.91 1013 10 16 0.00 0.00
2:56 pm 14:56 Sunny 72 22.2 35 1.7 26 26 SSW 25 41 29.88 1012 10 16 0.00 0.00
3:56 pm 15:56 Sunny 72 22.2 34 1.1 25 25 SSW 26 43 29.87 1012 10 16 0.00 0.00
4:56 pm 16:56 Sunny 71 21.7 33 0.6 25 25 S 24 39 29.85 1011 10 16 0.00 0.00
5:56 pm 17:56 Sunny 68 20 33 0.6 27 27 S 23 37 29.86 1011 10 16 0.00 0.00
6:56 pm 18:56 Clear 62 16.7 32 0 32 32 S 16 26 29.88 1012 10 16 0.00 0.00
7:56 pm 19:56 Clear 58 14.4 32 0 38 38 S 16 26 29.89 1012 10 16 0.00 0.00
8:56 pm 20:56 Clear 57 13.9 31 -0.6 37 37 S 20 31 29.88 1012 10 16 0.00 0.00
9:56 pm 21:56 Clear 55 12.8 30 -1.1 38 38 S 23 37 29.88 1012 10 16 0.00 0.00
10:56 pm 22:56 Clear 53 11.7 30 -1.1 41 41 S 22 35 29.87 1012 10 16 0.00 0.00
11:56 pm 23:56 Clear 50 10 30 -1.1 46 46 S 17 28 29.86 1011 10 16 0.00 0.00

Powered by AerisWeather